Location: Boiro
(42.6475°N, 8.8834°W)
Time: 01:54:30
(UTC+01:00)

Transit 2A Rocket - Pass Details

Date: 07 December 2021
Orbit: 584 x 917 km, 66.7° (Epoch: 23 January)

Event Time Altitude Azimuth Distance (km) Brightness Sun altitude
Rises 17:17:46 0° 328° (NNW) 3,555 8.4 5.9°
Reaches altitude 10° 17:20:20 10° 327° (NNW) 2,594 7.7 5.5°
Maximum altitude 17:26:24 80° 242° (WSW) 890 5.6 4.6°
Drops below altitude 10° 17:32:03 10° 156° (SSE) 2,417 7.8 3.8°
Sets 17:34:23 0° 155° (SSE) 3,298 8.4 3.4°
